Flag for San Marino Weather past 2 weeks in San Marino, San Marino

Now
84 °F

Sunny.


Feels Like: 91 °F
Forecast: 62 / 80 °F
Wind: 5 mph from East

Location: Rimini Airport

Current Time: Aug 4, 2015 at 8:00:57 PM

Latest Report: Aug 4, 2015 at 7:15 PM


Visibility: 10 mi

Pressure: 29.92 "Hg (27.75 "Hg at 666m altitude)

Humidity: 70%

Dew point: 73 °F

Location of San MarinoLocation

Historic Weather in San Marino — Graph

°F

San Marino temperature yesterday

Maximum temperature yesterday: 86 °F (at 1:45 PM)
Minimum temperature yesterday: 72 °F (at 5:15 AM)
Average temperature yesterday: 80 °F

Past Weeks' High & Low Weather Summary

 TemperatureHumidityPressure
High93 °F (Jul 22, 11:15 AM)89% (Jul 22, 4:15 AM)30.04 "Hg (Jul 22, 4:15 AM)
Low68 °F (Aug 1, 4:45 AM)36% (Jul 22, 8:45 PM)29.65 "Hg (Jul 27, 4:15 PM)
Average83 °F67%29.84 "Hg
* Reported Jul 20 6:15 PM — Aug 4 6:45 PM, San Marino, Weather by CustomWeather, © 2015

Note: Actual official high and low records may vary slightly from our data, if they occured in-between our weather recording intervals... More about our weather records

Advertising

San Marino weather history for previous 24 hours

 ConditionsComfort  
Time TempWeatherWind HumidityBarometerVisibility
6:45 PM
Tue, Aug 4
84 °FSunny.3 mph66%29.92 "Hg10 mi
6:15 PM86 °FSunny.5 mph66%29.92 "Hg10 mi
5:45 PM86 °FSunny.6 mph66%29.92 "Hg10 mi
5:15 PM86 °FSunny.6 mph66%29.92 "Hg10 mi
4:45 PM86 °FSunny.8 mph66%29.92 "Hg10 mi
4:15 PM86 °FSunny.9 mph66%29.92 "Hg10 mi
3:45 PM86 °FSunny.9 mph66%29.92 "Hg10 mi
3:15 PM86 °FSunny.8 mph66%29.95 "Hg10 mi
2:45 PM86 °FSunny.9 mph70%29.95 "Hg10 mi
2:15 PM86 °FSunny.10 mph70%29.95 "Hg10 mi
1:45 PM86 °FSunny.10 mph70%29.95 "Hg10 mi
1:15 PM86 °FSunny.10 mph66%29.95 "Hg10 mi
12:45 PM86 °FSunny.12 mph66%29.95 "Hg10 mi
12:15 PM86 °FSunny.12 mph66%29.98 "Hg10 mi
11:45 AM86 °FSunny.13 mph62%29.95 "Hg10 mi
11:15 AM86 °FSunny.9 mph62%29.98 "Hg10 mi
10:45 AM84 °FSunny.9 mph62%29.95 "Hg10 mi
10:15 AM84 °FSunny.10 mph62%29.95 "Hg10 mi
9:45 AM84 °FSunny.9 mph62%29.95 "Hg10 mi
9:15 AM82 °FSunny.9 mph66%29.95 "Hg10 mi
8:45 AM82 °FSunny.10 mph66%29.95 "Hg10 mi
8:15 AM79 °FSunny.6 mph70%29.95 "Hg10 mi
7:45 AM77 °FSunny.5 mph79%29.95 "Hg10 mi
7:15 AM75 °FSunny.7 mph78%29.95 "Hg10 mi
6:45 AM73 °FClear.2 mph78%29.95 "Hg10 mi
6:15 AM73 °FClear.3 mph78%29.95 "Hg10 mi
5:45 AM73 °FClear.2 mph78%29.98 "Hg10 mi
5:15 AM73 °FClear.3 mph78%29.98 "Hg10 mi
4:45 AM73 °FClear.5 mph78%29.98 "Hg10 mi
4:15 AM73 °FClear.No wind83%29.98 "Hg10 mi
3:45 AM73 °FClear.2 mph83%29.98 "Hg10 mi
3:15 AM73 °FClear.3 mph83%29.98 "Hg10 mi
2:45 AM73 °FClear.No wind83%29.98 "Hg10 mi
2:15 AM73 °FClear.No wind83%29.98 "Hg10 mi
1:15 AM73 °FClear.2 mph89%29.98 "Hg10 mi
12:45 AM75 °FClear.2 mph83%29.98 "Hg10 mi
12:15 AM75 °FClear.2 mph89%29.98 "Hg10 mi
11:45 PM
Mon, Aug 3
77 °FClear.1 mph83%29.98 "Hg10 mi
11:15 PM77 °FClear.2 mph83%29.98 "Hg10 mi
10:45 PM79 °FClear.3 mph84%29.98 "Hg10 mi
10:15 PM81 °FClear.3 mph79%29.98 "Hg10 mi
9:45 PM81 °FClear.No wind79%29.98 "Hg10 mi
9:15 PM81 °FSunny.No wind79%29.95 "Hg10 mi
8:45 PM82 °FSunny.No wind74%29.95 "Hg10 mi
8:15 PM84 °FSunny.1 mph70%29.95 "Hg10 mi
Weather by CustomWeather, © 2015

See weather overviewHow to use our weather pages